Terug naar catalogus

COSMOS 1125

ActiefMilitairLEO
NORAD 11510·PAYLOAD·🇷🇺 Russia

Gelanceerd Aug 28, 1979 vanaf Plesetsk Cosmodrome

Loading…

Volgende Passages (komende 24 uur)

TLE

VersSource: Space-Track

Epoch: Sep 14, 2026, 07:46 UTC

1 11510U 79078A   26257.32398306  .00000081  00000-0  38291-4 0  9991
2 11510  74.0367  12.1166 0013207 219.7990 140.2194 14.34150114458219

Volg COSMOS 1125 in realtime met AllMySat

Download on the App Store